weather.gov     
National Weather Service

Regional Weather Roundup
NWS Homepage
This page is being discontinued on March 12, 2014.
The same data is available at this site. Please update your bookmarks.
Thank you, and we apologize for the inconvenience.
Please send an email to SR-SRH.Webmaster@noaa.gov with any concerns.


Current Version
Previous Version:    01  02  03  04  05  06  07  08  09  10  11  12  13  14  15  16  17  18  19  20  21  22  23  24  25  26  
[Printable]
268
ASUS45 KGGW 280215
RWRGGW
HOURLY WEATHER ROUNDUP FOR NORTHEAST MONTANA
NATIONAL WEATHER SERVICE GLASGOW MONTANA
700 PM MST THU NOV 27 2014

NOTE: "FAIR" INDICATES FEW OR NO CLOUDS BELOW 12,000 FEET WITH NO
SIGNIFICANT WEATHER AND/OR OBSTRUCTIONS TO VISISBILITY.

NORTHEAST MONTANA


CITY           SKY/WX    TMP DP  RH WIND       PRES   REMARKS
GLASGOW        CLOUDY    25  22  88 E14       29.74F FOG
PLENTYWOOD       N/A     18  16  92 E14         N/A
WOLF POINT     MOCLDY    23  19  85 E10       29.80S
JORDAN           N/A     32  30  92 CALM      29.73F
WINNETT          N/A     42  32  67 SW6G16      N/A
SIDNEY         CLEAR     23  19  86 N8        29.81F
GLENDIVE       CLEAR     30  27  86 S7        29.76F
MALTA            N/A     30  30 100 NE5         N/A
SCOBEY           N/A     19  13  77 E8        29.79S

FORT PECK REPORTS


CITY           SKY/WX    TMP DP  RH WIND       PRES   REMARKS
FORT PECK        N/A     29  29 100 NE14        N/A
THE PINES        N/A     34  32  92 E7          N/A

SOUTHEAST MONTANA


CITY           SKY/WX    TMP DP  RH WIND       PRES   REMARKS
BILLINGS       MOCLDY    46  29  51 SW17G25   29.80F
MILES CITY     CLOUDY    40  34  79 S6        29.77F
BAKER          MOCLDY    37  30  75 W8        29.79S
LIVINGSTON     PTCLDY    53  31  42 SW32G45   29.84S

CENTRAL MONTANA


CITY           SKY/WX    TMP DP  RH WIND       PRES   REMARKS
HAVRE          FOG       29  28  96 CALM      29.70S VSB 3/4
LEWISTOWN      MOCLDY    45  33  63 SW12      29.76F
GREAT FALLS    CLEAR     50  36  58 SW14      29.71F
CUT BANK       PTCLDY    39  34  82 SW17      29.66F
HELENA         CLOUDY    47  33  58 E6        29.81F
BUTTE          CLOUDY    45  33  63 SW13G18   29.94S
BOZEMAN        CLOUDY    50  31  48 SW12G24   29.88F

WESTERN MONTANA


CITY           SKY/WX    TMP DP  RH WIND       PRES   REMARKS
MISSOULA       CLOUDY    49  37  63 W9        29.86F
KALISPELL      NOT AVBL

NORTH DAKOTA


CITY           SKY/WX    TMP DP  RH WIND       PRES   REMARKS
WILLISTON      PTCLDY    17  12  80 E8        29.85R
DICKINSON      CLEAR     22  19  89 S9        29.76F
MINOT          CLOUDY    12   8  84 SE14      29.94F WCI  -3
BISMARCK       CLOUDY    12   7  80 SE13      29.96F WCI  -3

SOUTHERN SASKATCHEWAN


CITY           SKY/WX    TMP DP  RH WIND       PRES   REMARKS
REGINA         FLURRIES  18  14  86 E15       29.92R
ESTEVAN        FLURRIES  10   7  85 E16       29.91F WCI  -7
SWIFT CURRENT  LGT SNOW  18  16  93 E18G24    29.72F





U.S. Dept. of Commerce
NOAA National Weather Service
1325 East West Highway
Silver Spring, MD 20910
E-mail: w-nws.webmaster@noaa.gov
Page last modified: May 16, 2007
NATIONAL WEATHER SERVICE: for Safety, for Work, for Fun - FOR LIFE